Time,TemperatureF,DewpointF,PressureIn,WindDirection,WindDirectionDegrees,WindSpeedMPH,WindSpeedGustMPH,Humidity,HourlyPrecipIn,Conditions,Clouds,dailyrainin,SoftwareType,DateUTC
2013-03-28 00:00:00,33.0,30.4,29.93,North,6,2.0,2.0,90,0.00,,,0.00,Wunderground v.1.15,2013-03-28 03:00:00,
2013-03-28 00:10:00,33.1,30.5,29.93,NNW,345,2.0,22.0,90,0.00,,,0.00,Wunderground v.1.15,2013-03-28 03:10:00,
2013-03-28 00:20:00,33.2,30.6,29.93,NNW,335,3.0,3.0,90,0.00,,,0.00,Wunderground v.1.15,2013-03-28 03:20:00,
2013-03-28 00:30:00,33.3,30.7,29.93,WNW,293,3.0,22.0,90,0.00,,,0.00,Wunderground v.1.15,2013-03-28 03:30:00,
2013-03-28 00:40:00,33.7,30.8,29.93,NNE,13,4.0,4.0,89,0.00,,,0.00,Wunderground v.1.15,2013-03-28 03:40:00,
2013-03-28 00:50:00,33.7,30.5,29.93,NW,311,3.0,22.0,88,0.00,,,0.00,Wunderground v.1.15,2013-03-28 03:50:00,
2013-03-28 01:00:00,33.6,30.7,29.92,North,359,3.0,22.0,89,0.00,,,0.00,Wunderground v.1.15,2013-03-28 04:00:00,
2013-03-28 01:10:00,33.7,30.5,29.93,WNW,298,3.0,3.0,88,0.00,,,0.00,Wunderground v.1.15,2013-03-28 04:10:00,
2013-03-28 01:20:00,33.7,30.5,29.92,WNW,300,3.0,22.0,88,0.00,,,0.00,Wunderground v.1.15,2013-03-28 04:20:00,
2013-03-28 01:30:00,33.7,30.5,29.93,North,10,4.0,22.0,88,0.00,,,0.00,Wunderground v.1.15,2013-03-28 04:30:00,
2013-03-28 01:40:00,33.7,30.5,29.92,NNW,347,4.0,22.0,88,0.00,,,0.00,Wunderground v.1.15,2013-03-28 04:40:00,
2013-03-28 01:50:00,33.8,30.6,29.93,NNE,16,4.0,4.0,88,0.00,,,0.00,Wunderground v.1.15,2013-03-28 04:50:00,
2013-03-28 02:00:00,34.1,30.6,29.92,NNE,17,4.0,22.0,87,0.00,,,0.00,Wunderground v.1.15,2013-03-28 05:00:00,
2013-03-28 02:10:00,34.3,30.5,29.92,NE,34,4.0,4.0,86,0.00,,,0.00,Wunderground v.1.15,2013-03-28 05:10:00,
2013-03-28 02:20:00,34.3,30.5,29.92,NW,314,4.0,22.0,86,0.00,,,0.00,Wunderground v.1.15,2013-03-28 05:20:00,
2013-03-28 02:30:00,34.3,30.5,29.92,NW,314,4.0,22.0,86,0.00,,,0.00,Wunderground v.1.15,2013-03-28 05:30:00,
2013-03-28 02:40:00,34.0,30.5,29.93,NW,313,3.0,3.0,87,0.00,,,0.00,Wunderground v.1.15,2013-03-28 05:40:00,
2013-03-28 02:50:00,33.8,30.3,29.93,NW,321,3.0,3.0,87,0.00,,,0.00,Wunderground v.1.15,2013-03-28 05:50:00,
2013-03-28 03:00:00,33.7,30.2,29.93,NW,310,3.0,3.0,87,0.00,,,0.00,Wunderground v.1.15,2013-03-28 06:00:00,
2013-03-28 03:10:00,33.7,30.5,29.93,NW,305,3.0,22.0,88,0.00,,,0.00,Wunderground v.1.15,2013-03-28 06:10:00,
2013-03-28 03:20:00,33.8,30.3,29.93,NNE,15,3.0,22.0,87,0.00,,,0.00,Wunderground v.1.15,2013-03-28 06:20:00,
2013-03-28 03:30:00,33.5,30.3,29.93,NNW,336,3.0,22.0,88,0.00,,,0.00,Wunderground v.1.15,2013-03-28 06:30:00,
2013-03-28 03:40:00,33.4,30.2,29.93,NW,307,3.0,22.0,88,0.00,,,0.00,Wunderground v.1.15,2013-03-28 06:40:00,
2013-03-28 03:50:00,33.5,30.3,29.93,NW,315,3.0,22.0,88,0.00,,,0.00,Wunderground v.1.15,2013-03-28 06:50:00,
2013-03-28 04:00:00,33.5,30.3,29.93,NNW,347,4.0,22.0,88,0.00,,,0.00,Wunderground v.1.15,2013-03-28 07:00:00,
2013-03-28 04:10:00,33.6,30.4,29.93,NW,314,4.0,22.0,88,0.00,,,0.00,Wunderground v.1.15,2013-03-28 07:10:00,
2013-03-28 04:20:00,33.3,30.1,29.93,NW,314,3.0,22.0,88,0.00,,,0.00,Wunderground v.1.15,2013-03-28 07:20:00,
2013-03-28 04:30:00,33.3,30.1,29.93,NNW,342,3.0,22.0,88,0.00,,,0.00,Wunderground v.1.15,2013-03-28 07:30:00,
2013-03-28 04:40:00,33.2,30.0,29.93,NW,314,3.0,22.0,88,0.00,,,0.00,Wunderground v.1.15,2013-03-28 07:40:00,
2013-03-28 04:50:00,33.3,30.1,29.93,North,351,3.0,22.0,88,0.00,,,0.00,Wunderground v.1.15,2013-03-28 07:50:00,
2013-03-28 05:00:00,33.4,30.5,29.93,NW,314,4.0,4.0,89,0.00,,,0.00,Wunderground v.1.15,2013-03-28 08:00:00,
2013-03-28 05:10:00,33.6,30.4,29.93,NW,311,3.0,22.0,88,0.00,,,0.00,Wunderground v.1.15,2013-03-28 08:10:00,
2013-03-28 05:20:00,33.6,30.4,29.93,NW,319,3.0,3.0,88,0.00,,,0.00,Wunderground v.1.15,2013-03-28 08:20:00,
2013-03-28 05:30:00,33.8,30.3,29.93,NNW,329,3.0,3.0,87,0.00,,,0.00,Wunderground v.1.15,2013-03-28 08:30:00,
2013-03-28 05:40:00,33.5,30.3,29.93,NW,307,3.0,22.0,88,0.00,,,0.00,Wunderground v.1.15,2013-03-28 08:40:00,
2013-03-28 05:50:00,32.8,29.9,29.93,North,11,3.0,22.0,89,0.00,,,0.00,Wunderground v.1.15,2013-03-28 08:50:00,
2013-03-28 06:00:00,32.5,29.9,29.93,North,358,3.0,3.0,90,0.00,,,0.00,Wunderground v.1.15,2013-03-28 09:00:00,
2013-03-28 06:10:00,32.4,29.8,29.93,NNW,338,3.0,22.0,90,0.00,,,0.00,Wunderground v.1.15,2013-03-28 09:10:00,
2013-03-28 06:20:00,32.8,30.2,29.93,NNW,327,3.0,22.0,90,0.00,,,0.00,Wunderground v.1.15,2013-03-28 09:20:00,
2013-03-28 06:30:00,33.1,30.2,29.94,North,354,3.0,22.0,89,0.00,,,0.00,Wunderground v.1.15,2013-03-28 09:30:00,
2013-03-28 06:40:00,33.3,30.1,29.94,NNW,328,4.0,22.0,88,0.00,,,0.00,Wunderground v.1.15,2013-03-28 09:40:00,
2013-03-28 06:50:00,33.3,30.1,29.94,WNW,290,4.0,4.0,88,0.00,,,0.00,Wunderground v.1.15,2013-03-28 09:50:00,
2013-03-28 07:00:00,33.1,29.9,29.94,NNW,329,3.0,22.0,88,0.00,,,0.00,Wunderground v.1.15,2013-03-28 10:00:00,
2013-03-28 07:10:00,32.9,30.0,29.95,NNW,345,2.0,22.0,89,0.00,,,0.00,Wunderground v.1.15,2013-03-28 10:10:00,
2013-03-28 07:20:00,32.9,30.0,29.95,North,5,3.0,3.0,89,0.00,,,0.00,Wunderground v.1.15,2013-03-28 10:20:00,
2013-03-28 07:30:00,32.9,30.0,29.95,North,352,2.0,22.0,89,0.00,,,0.00,Wunderground v.1.15,2013-03-28 10:30:00,
2013-03-28 07:40:00,32.9,30.0,29.95,NE,43,3.0,3.0,89,0.00,,,0.00,Wunderground v.1.15,2013-03-28 10:40:00,
2013-03-28 07:50:00,33.3,30.4,29.96,NE,37,3.0,3.0,89,0.00,,,0.00,Wunderground v.1.15,2013-03-28 10:50:00,
2013-03-28 08:00:00,33.5,30.3,29.96,NW,323,3.0,22.0,88,0.00,,,0.00,Wunderground v.1.15,2013-03-28 11:00:00,
2013-03-28 08:10:00,33.5,30.3,29.96,NNE,12,2.0,22.0,88,0.00,,,0.00,Wunderground v.1.15,2013-03-28 11:10:00,
2013-03-28 08:20:00,33.6,30.4,29.97,NNW,331,3.0,22.0,88,0.00,,,0.00,Wunderground v.1.15,2013-03-28 11:20:00,
2013-03-28 08:30:00,33.8,30.3,29.97,North,8,3.0,22.0,87,0.00,,,0.00,Wunderground v.1.15,2013-03-28 11:30:00,
2013-03-28 08:40:00,33.9,30.4,29.97,NNW,338,2.0,22.0,87,0.00,,,0.00,Wunderground v.1.15,2013-03-28 11:40:00,
2013-03-28 08:50:00,34.1,30.6,29.97,NNW,345,2.0,22.0,87,0.00,,,0.00,Wunderground v.1.15,2013-03-28 11:50:00,
2013-03-28 09:00:00,34.6,31.1,29.97,NNE,32,2.0,22.0,87,0.00,,,0.00,Wunderground v.1.15,2013-03-28 12:00:00,
2013-03-28 09:10:00,35.7,31.6,29.97,NNW,328,1.0,22.0,85,0.00,,,0.00,Wunderground v.1.15,2013-03-28 12:10:00,
2013-03-28 09:20:00,35.9,31.5,29.97,North,359,1.0,22.0,84,0.00,,,0.00,Wunderground v.1.15,2013-03-28 12:20:00,
2013-03-28 09:30:00,36.1,32.0,29.97,NNE,26,1.0,22.0,85,0.00,,,0.00,Wunderground v.1.15,2013-03-28 12:30:00,
2013-03-28 09:40:00,36.6,31.9,29.97,NNW,345,1.0,22.0,83,0.00,,,0.00,Wunderground v.1.15,2013-03-28 12:40:00,
2013-03-28 09:50:00,36.6,31.6,29.98,NNW,347,1.0,22.0,82,0.00,,,0.00,Wunderground v.1.15,2013-03-28 12:50:00,
2013-03-28 10:00:00,36.6,31.6,29.98,NNW,342,2.0,22.0,82,0.00,,,0.00,Wunderground v.1.15,2013-03-28 13:00:00,
2013-03-28 10:10:00,36.5,31.5,29.98,NNW,345,3.0,3.0,82,0.00,,,0.00,Wunderground v.1.15,2013-03-28 13:10:00,
2013-03-28 10:20:00,36.5,31.5,29.98,WNW,302,3.0,22.0,82,0.00,,,0.00,Wunderground v.1.15,2013-03-28 13:20:00,
2013-03-28 10:30:00,36.5,31.5,29.98,North,349,4.0,22.0,82,0.00,,,0.00,Wunderground v.1.15,2013-03-28 13:30:00,
2013-03-28 10:40:00,36.4,31.4,29.98,NW,320,4.0,22.0,82,0.00,,,0.00,Wunderground v.1.15,2013-03-28 13:40:00,
2013-03-28 10:50:00,36.8,31.5,29.98,WNW,298,3.0,22.0,81,0.00,,,0.00,Wunderground v.1.15,2013-03-28 13:50:00,
2013-03-28 11:00:00,37.5,31.9,29.98,NNE,20,2.0,22.0,80,0.00,,,0.00,Wunderground v.1.15,2013-03-28 14:00:00,
2013-03-28 11:10:00,37.4,31.8,29.98,NW,316,3.0,3.0,80,0.00,,,0.00,Wunderground v.1.15,2013-03-28 14:10:00,
2013-03-28 11:20:00,38.1,31.8,29.98,NNW,348,3.0,22.0,78,0.00,,,0.00,Wunderground v.1.15,2013-03-28 14:20:00,
2013-03-28 11:30:00,37.8,31.6,29.98,NW,314,4.0,4.0,78,0.00,,,0.00,Wunderground v.1.15,2013-03-28 14:30:00,
2013-03-28 11:40:00,37.7,31.5,29.98,North,6,3.0,3.0,78,0.00,,,0.00,Wunderground v.1.15,2013-03-28 14:40:00,
2013-03-28 11:50:00,37.4,31.5,29.99,West,278,3.0,3.0,79,0.00,,,0.00,Wunderground v.1.15,2013-03-28 14:50:00,
2013-03-28 12:00:00,37.1,31.2,29.98,NNW,338,3.0,22.0,79,0.00,,,0.00,Wunderground v.1.15,2013-03-28 15:00:00,
2013-03-28 12:10:00,37.3,31.7,29.99,NNW,342,3.0,3.0,80,0.00,,,0.00,Wunderground v.1.15,2013-03-28 15:10:00,
2013-03-28 12:20:00,36.9,31.0,29.98,WNW,295,4.0,4.0,79,0.00,,,0.00,Wunderground v.1.15,2013-03-28 15:20:00,
2013-03-28 12:30:00,36.7,31.1,29.98,NW,321,4.0,4.0,80,0.00,,,0.00,Wunderground v.1.15,2013-03-28 15:30:00,
2013-03-28 12:40:00,37.1,31.5,29.98,North,359,4.0,22.0,80,0.00,,,0.00,Wunderground v.1.15,2013-03-28 15:40:00,
2013-03-28 12:50:00,37.4,31.5,29.98,NW,307,3.0,22.0,79,0.00,,,0.00,Wunderground v.1.15,2013-03-28 15:50:00,
2013-03-28 13:00:00,37.1,31.5,29.98,NNE,18,3.0,22.0,80,0.00,,,0.00,Wunderground v.1.15,2013-03-28 16:00:00,
2013-03-28 13:10:00,37.1,31.5,29.98,WNW,287,3.0,22.0,80,0.00,,,0.00,Wunderground v.1.15,2013-03-28 16:10:00,
2013-03-28 13:20:00,36.7,31.4,29.99,NW,319,3.0,22.0,81,0.00,,,0.00,Wunderground v.1.15,2013-03-28 16:20:00,
2013-03-28 13:30:00,36.5,31.2,29.99,NNW,342,3.0,22.0,81,0.00,,,0.00,Wunderground v.1.15,2013-03-28 16:30:00,
2013-03-28 13:40:00,36.5,31.2,29.99,NW,319,3.0,3.0,81,0.00,,,0.00,Wunderground v.1.15,2013-03-28 16:40:00,
2013-03-28 13:50:00,36.8,31.5,29.99,NNE,30,3.0,22.0,81,0.00,,,0.00,Wunderground v.1.15,2013-03-28 16:50:00,
2013-03-28 14:00:00,37.1,31.5,29.99,North,5,3.0,3.0,80,0.00,,,0.00,Wunderground v.1.15,2013-03-28 17:00:00,
2013-03-28 14:10:00,37.0,31.4,29.99,NNE,22,3.0,3.0,80,0.00,,,0.00,Wunderground v.1.15,2013-03-28 17:10:00,
2013-03-28 14:20:00,36.5,31.2,29.99,NW,313,4.0,22.0,81,0.00,,,0.00,Wunderground v.1.15,2013-03-28 17:20:00,
2013-03-28 14:30:00,36.0,30.7,29.99,WNW,287,4.0,4.0,81,0.00,,,0.00,Wunderground v.1.15,2013-03-28 17:30:00,
2013-03-28 14:40:00,35.9,30.9,29.99,NW,311,3.0,22.0,82,0.00,,,0.00,Wunderground v.1.15,2013-03-28 17:40:00,
2013-03-28 14:50:00,36.0,31.0,29.98,WNW,285,3.0,22.0,82,0.00,,,0.00,Wunderground v.1.15,2013-03-28 17:50:00,
2013-03-28 15:00:00,36.4,31.4,29.98,NNW,327,2.0,22.0,82,0.00,,,0.00,Wunderground v.1.15,2013-03-28 18:00:00,
2013-03-28 15:10:00,37.5,31.9,29.99,WNW,303,2.0,2.0,80,0.00,,,0.00,Wunderground v.1.15,2013-03-28 18:10:00,
2013-03-28 15:20:00,38.0,31.7,29.99,NNW,346,3.0,22.0,78,0.00,,,0.00,Wunderground v.1.15,2013-03-28 18:20:00,
2013-03-28 15:30:00,38.0,31.4,29.99,North,354,4.0,22.0,77,0.00,,,0.00,Wunderground v.1.15,2013-03-28 18:30:00,
2013-03-28 15:40:00,37.5,31.6,29.99,NNW,328,3.0,22.0,79,0.00,,,0.00,Wunderground v.1.15,2013-03-28 18:40:00,
2013-03-28 15:50:00,37.8,31.9,29.98,NW,323,3.0,3.0,79,0.00,,,0.00,Wunderground v.1.15,2013-03-28 18:50:00,
2013-03-28 16:00:00,38.0,32.1,29.98,NW,304,3.0,22.0,79,0.00,,,0.00,Wunderground v.1.15,2013-03-28 19:00:00,
2013-03-28 16:10:00,37.6,31.4,29.99,WNW,285,4.0,4.0,78,0.00,,,0.00,Wunderground v.1.15,2013-03-28 19:10:00,
2013-03-28 16:20:00,37.3,31.1,29.99,West,277,3.0,22.0,78,0.00,,,0.00,Wunderground v.1.15,2013-03-28 19:20:00,
2013-03-28 16:30:00,37.3,31.4,29.99,WNW,295,3.0,3.0,79,0.00,,,0.00,Wunderground v.1.15,2013-03-28 19:30:00,
2013-03-28 16:40:00,37.0,31.1,29.99,WNW,301,3.0,3.0,79,0.00,,,0.00,Wunderground v.1.15,2013-03-28 19:40:00,
2013-03-28 16:50:00,37.4,31.2,29.99,NNW,347,3.0,22.0,78,0.00,,,0.00,Wunderground v.1.15,2013-03-28 19:50:00,
2013-03-28 17:00:00,37.4,31.2,29.99,NNW,330,3.0,22.0,78,0.00,,,0.00,Wunderground v.1.15,2013-03-28 20:00:00,
2013-03-28 17:10:00,37.5,30.9,29.99,NW,304,3.0,22.0,77,0.00,,,0.00,Wunderground v.1.15,2013-03-28 20:10:00,
2013-03-28 17:20:00,37.3,30.7,29.99,North,6,3.0,22.0,77,0.00,,,0.00,Wunderground v.1.15,2013-03-28 20:20:00,
2013-03-28 17:30:00,37.0,30.8,29.99,NW,304,3.0,3.0,78,0.00,,,0.00,Wunderground v.1.15,2013-03-28 20:30:00,
2013-03-28 17:40:00,37.0,30.8,29.99,NW,311,2.0,2.0,78,0.00,,,0.00,Wunderground v.1.15,2013-03-28 20:40:00,
2013-03-28 17:50:00,36.6,30.4,29.99,NNW,347,2.0,22.0,78,0.00,,,0.00,Wunderground v.1.15,2013-03-28 20:50:00,
2013-03-28 18:00:00,36.5,30.9,29.99,WNW,300,2.0,2.0,80,0.00,,,0.00,Wunderground v.1.15,2013-03-28 21:00:00,
2013-03-28 18:10:00,36.4,30.5,29.99,NNE,17,2.0,22.0,79,0.00,,,0.00,Wunderground v.1.15,2013-03-28 21:10:00,
2013-03-28 18:20:00,36.1,30.2,29.99,NNW,334,2.0,22.0,79,0.00,,,0.00,Wunderground v.1.15,2013-03-28 21:20:00,
2013-03-28 18:30:00,35.6,30.0,29.99,West,271,2.0,2.0,80,0.00,,,0.00,Wunderground v.1.15,2013-03-28 21:30:00,
2013-03-28 18:40:00,35.3,29.7,30.00,WNW,294,1.0,1.0,80,0.00,,,0.00,Wunderground v.1.15,2013-03-28 21:40:00,
2013-03-28 18:50:00,35.1,29.9,30.00,West,271,1.0,22.0,81,0.00,,,0.00,Wunderground v.1.15,2013-03-28 21:50:00,
2013-03-28 19:00:00,34.9,29.7,30.00,NW,326,1.0,22.0,81,0.00,,,0.00,Wunderground v.1.15,2013-03-28 22:00:00,
2013-03-28 19:10:00,33.9,29.0,30.00,WNW,298,1.0,22.0,82,0.00,,,0.00,Wunderground v.1.15,2013-03-28 22:10:00,
2013-03-28 20:30:00,29.3,27.3,30.01,SW,231,0.0,22.0,92,0.00,,,0.00,Wunderground v.1.15,2013-03-28 23:30:00,
2013-03-28 20:40:00,29.2,27.2,30.01,SW,219,0.0,22.0,92,0.00,,,0.00,Wunderground v.1.15,2013-03-28 23:40:00,
2013-03-28 20:50:00,29.0,27.2,30.01,SSW,208,0.0,22.0,93,0.00,,,0.00,Wunderground v.1.15,2013-03-28 23:50:00,
2013-03-28 21:10:00,28.8,27.0,30.01,SW,228,0.0,22.0,93,0.00,,,0.00,Wunderground v.1.15,2013-03-29 00:10:00,
2013-03-28 21:20:00,28.4,26.6,30.01,SW,226,0.0,22.0,93,0.00,,,0.00,Wunderground v.1.15,2013-03-29 00:20:00,
2013-03-28 21:30:00,28.5,27.0,30.01,SW,228,0.0,22.0,94,0.00,,,0.00,Wunderground v.1.15,2013-03-29 00:30:00,
2013-03-28 21:40:00,28.4,26.9,30.01,WSW,242,0.0,22.0,94,0.00,,,0.00,Wunderground v.1.15,2013-03-29 00:40:00,
2013-03-28 21:50:00,28.1,26.3,30.01,SW,221,0.0,22.0,93,0.00,,,0.00,Wunderground v.1.15,2013-03-29 00:50:00,
2013-03-28 22:00:00,28.1,26.6,30.01,SW,222,0.0,22.0,94,0.00,,,0.00,Wunderground v.1.15,2013-03-29 01:00:00,
2013-03-28 22:10:00,28.1,26.6,30.01,SSW,210,0.0,22.0,94,0.00,,,0.00,Wunderground v.1.15,2013-03-29 01:10:00,
2013-03-28 22:20:00,27.5,25.7,30.01,SSW,210,0.0,22.0,93,0.00,,,0.00,Wunderground v.1.15,2013-03-29 01:20:00,
2013-03-28 22:30:00,28.1,26.6,30.01,SW,224,0.0,22.0,94,0.00,,,0.00,Wunderground v.1.15,2013-03-29 01:30:00,
2013-03-28 22:40:00,28.3,26.8,30.01,SW,226,1.0,1.0,94,0.00,,,0.00,Wunderground v.1.15,2013-03-29 01:40:00,
2013-03-28 22:50:00,27.9,26.1,30.00,South,181,0.0,22.0,93,0.00,,,0.00,Wunderground v.1.15,2013-03-29 01:50:00,
2013-03-28 23:00:00,27.5,25.7,30.01,SSW,199,1.0,1.0,93,0.00,,,0.00,Wunderground v.1.15,2013-03-29 02:00:00,
2013-03-28 23:10:00,28.0,26.2,30.01,SSW,201,1.0,22.0,93,0.00,,,0.00,Wunderground v.1.15,2013-03-29 02:10:00,
2013-03-28 23:20:00,28.0,26.2,30.01,SSW,195,1.0,22.0,93,0.00,,,0.00,Wunderground v.1.15,2013-03-29 02:20:00,
2013-03-28 23:30:00,28.1,26.3,30.00,SSW,193,0.0,22.0,93,0.00,,,0.00,Wunderground v.1.15,2013-03-29 02:30:00,
2013-03-28 23:40:00,27.7,25.7,30.00,SSW,194,0.0,22.0,92,0.00,,,0.00,Wunderground v.1.15,2013-03-29 02:40:00,
2013-03-28 23:50:00,27.6,25.8,30.00,South,191,0.0,22.0,93,0.00,,,0.00,Wunderground v.1.15,2013-03-29 02:50:00,